Dies ist die Übersicht über die aktuellen Messwerte der DWD-Stationen.

Eine Auf/Abwärtssortierung der Messwerte, ist durch einen Klick auf den gewünschten Messwert im Tabellenkopf möglich (z.B. Klick auf "Temperatur 2m in °C" ändert Sortierung auf/absteigend). Die Messzeiten sind in UTC angegeben. Bei Sommerzeit sind 2 Stunden hinzu zu rechnen, bei Winterzeit 1 Stunde. Beispielsweise ist 14 UHR UTC = 15 Uhr Winterzeit bzw. 16 Uhr Sommerzeit. Die Messwerte werden jeweils zur 50igsten Minute vom DWD-Server geladen. Also jeweils 00:50 Uhr, 01:50 Uhr, 02:50, usw...

Station letzte Meldung Temperatur 2m in °C Taupunkt 2m in °C Feuchte 2m in % Temperatur 5cm in °C Mittelwind in km/h Spitzenböen in km/h Windrichtung in ° Luftdruck in hpa Sonnenscheindauer in Minuten Niederschlag in mm Sichtweite in km Neuschnee in cm Schneehöhe Gesamt in cm
Ahaus 18:00 14.1 12.6 91.0 13.6 12.0 36.0 190 1015.5 00 00.9 00.0
Alfeld 18:00 17.7 07.6 52.0 17.2 05.0 20.0 240 1016.5 60 00.0 00.0
Altenstadt 18:00 13.2 07.8 70.0 11.0 110 00.0
Andernach 18:00 17.8 09.5 58.0 17.2 15.0 32.0 220 1017.1 00 00.0 00.0
Angermünde 18:00 18.1 10.4 61.0 19.2 10.0 17.0 260 1016.9 44 00.0 00.0
Arkona 18:00 13.7 11.1 84.0 14.1 20.0 30.0 250 1016.4 18 00.0 00.0
Artern 18:00 17.9 07.1 49.0 17.1 12.0 24.0 240 1017.4 00.0 00.0
Augsburg 18:00 17.0 07.4 53.0 16.5 06.0 13.0 260 1018.6 59 00.0 00.0
Bamberg 18:00 17.6 05.4 45.0 18.1 09.0 17.0 280 1018.5 29 00.0 00.0
Barth 18:00 15.2 11.5 79.0 15.6 12.0 21.0 250 1016.5 00.0 00.0
Baruth 18:00 16.2 12.8 80.0 16.4 06.0 14.0 140 1017.7 00.0 00.0
Belm 18:00 17.2 08.2 55.0 17.2 10.0 24.0 190 1015.2 19 00.0 00.0
Bergen 18:00 16.7 05.3 47.0 07.0 200 1015.9 00.0
Berlin-Dahlem (FU) 18:00 18.0 08.9 55.0 04.0 240 1017.3 18 00.0
Berlin-Schönefeld 18:00 17.0 12.1 73.0 17.1 14.0 22.0 150 1017.4 55 00.0
Berlin-Tegel 18:00
Berlin-Tempelhof 18:00 18.6 09.0 54.0 18.8 08.0 23.0 270 1017.2 00.0 00.0
Berus 18:00 15.9 09.1 64.0 16.3 13.0 32.0 270 1018.1 00 00.0 00.0
Boizenburg 18:00 15.3 10.1 71.0 16.0 06.0 14.0 150 1016.2 26 00.0 00.0
Boltenhagen 18:00 15.0 10.8 76.0 15.0 09.0 17.0 220 1016.2 53 00.0 00.0
Bonn-Roleber 18:00 15.7 11.0 74.0 15.3 06.0 31.0 210 1016.8 00.2 00.0
Braunlage 18:00 12.7 12.0 11.0 26.0 230 1017.2 00.0 00.0
Braunschweig 18:00 17.8 05.3 44.0 17.3 12.0 27.0 240 1016.7 60 00.0
Bremen 18:00 17.9 07.6 51.0 17.4 12.0 27.0 220 1015.1 58 00.0
Bremerhaven 18:00 17.1 10.5 65.0 16.3 10.0 18.0 110 1014.8 51 00.0 00.0
Bremervörde 18:00 16.7 10.5 67.0 17.7 08.0 11.0 080 1015.4 54 00.0 00.0
Brocken 18:00 07.6 02.3 69.0 06.6 31.0 38.0 220 53 00.0 00.0
Büchel (Flugplatz) 18:00 13.3 09.1 76.0 14.0 240 1017.4
Bückeburg 18:00 17.8 07.0 49.0 11.0 210 1015.7 00.0
Carlsfeld 18:00 11.2 05.3 67.0 10.0 08.0 21.0 290 43 00.0 00.0
Celle 18:00 18.2 04.6 41.0 18.0 230 1016.0 00.0
Chieming 18:00 12.4 10.3 87.0 12.6 05.0 14.0 160 1020.4 00 00.0 00.0
Cottbus 18:00 15.6 12.1 80.0 15.6 05.0 12.0 220 1018.3 00 00.0 00.0
Cuxhaven 18:00 16.4 09.6 64.0 17.4 15.0 20.0 120 1015.0 23 00.0 00.0
Deuselbach 18:00 14.2 08.3 68.0 13.9 17.0 32.0 260 1017.9 00 00.0 00.0
Diepholz 18:00 17.9 07.7 51.0 18.1 17.0 23.0 200 1015.2 32 00.0 00.0
Doberlug-Kirchhain 18:00 17.5 10.1 62.0 18.4 02.0 08.0 270 1017.9 41 00.0 00.0
Dörnick 18:00 15.0 09.4 69.0 15.4 12.0 20.0 190 1015.9 45 00.0
Dresden-Klotzsche 18:00 14.5 12.1 86.0 14.4 05.0 09.0 130 1018.5 29 00.0 00.0
Düsseldorf 18:00 14.7 12.7 88.0 14.1 13.0 20.0 170 1016.1 00 00.7
Eisenach 18:00 16.4 05.6 49.0 16.4 10.0 26.0 270 1017.6 60 00.0 00.0
Elpersbüttel 18:00 15.7 09.2 65.0 15.3 00.0 12.0 000 1015.2 35 00.0 00.0
Emden 18:00 18.2 08.4 53.0 18.5 12.0 23.0 160 1013.5 52 00.0 00.0
Erfurt-Weimar 18:00 15.9 05.3 49.0 16.3 15.0 24.0 240 1017.7 00.0
Essen-Bredeney 18:00 13.5 12.6 94.0 13.4 06.0 19.0 180 1016.1 00 00.7 00.0
Faßberg 18:00 17.8 04.9 43.0 14.0 260 1015.8 00.0
Fehmarn 18:00 14.1 10.8 81.0 14.2 08.0 24.0 210 1015.9 07 00.0 00.0
Feldberg/Mecklenburg 18:00 16.6 10.1 65.0 17.7 04.0 15.0 300 1017.0 30 00.0 00.0
Feldberg/Schwarzwald 18:00 08.6 02.4 65.0 08.1 16.0 19.0 220 01 00.0 00.0
Feuchtwangen-Heilbronn 18:00 15.8 05.5 50.0 16.4 08.0 21.0 280 1018.6 00.0 00.0
Fichtelberg 18:00 09.7 06.6 81.0 08.2 21.0 36.0 260 37 00.0 00.0
Frankfurt/Main 18:00 17.7 07.5 51.0 15.9 17.0 28.0 210 1017.7 33 00.0 00.0
Freiburg 18:00 20.1 06.0 40.0 17.9 06.0 16.0 240 1018.0 42 00.0 00.0
Freudenstadt 18:00 14.9 04.0 48.0 13.8 07.0 23.0 270 59 00.0 00.0
Friesoythe-Altenoythe 18:00 18.4 07.7 50.0 20.2 12.0 27.0 190 1014.4 57 00.0 00.0
Fritzlar (Flugplatz) 18:00 16.8 06.7 51.0 18.0 210 1016.9 00.0
Fürstenzell 18:00 14.8 11.5 81.0 14.9 07.0 18.0 200 1019.4 28 00.0 00.0
Gardelegen 18:00 17.9 07.7 51.0 18.2 08.0 19.0 210 1017.1 47 00.0 00.0
Garmisch-Partenkirchen 18:00 13.0 09.4 79.0 12.5 04.0 08.0 350 1019.9 24 00.0 00.0
Geilenkirchen (Flugplatz) 18:00 14.9 12.4 85.0 14.0 210 1015.4
Geisenheim 18:00 18.7 08.1 50.0 18.0 08.0 21.0 210 1017.5 00 00.0 00.0
Gelbelsee 18:00 16.1 05.2 48.0 17.8 06.0 14.0 290 1018.7 37 00.0 00.0
Genthin 18:00 17.0 09.1 60.0 17.2 08.0 28.0 190 1017.4 21 00.0 00.0
Gera-Leumnitz 18:00 15.1 08.7 66.0 12.9 06.0 14.0 230 1018.0 01 00.0 00.0
Gießen/Wettenberg 18:00 17.3 08.3 55.0 17.1 13.0 21.0 180 1016.8 12 00.0 00.0
Glücksburg-Meierwik 18:00 16.2 07.1 55.0 14.0 230 1014.7
Goldberg 18:00 16.5 09.8 65.0 16.9 06.0 14.0 220 1016.6 00.0 00.0
Görlitz 18:00 14.4 13.4 94.0 14.8 04.0 08.0 210 1018.4 00 00.6 00.0
Gottfrieding 18:00 15.6 10.0 69.0 14.6 07.0 13.0 200 1019.3 12 00.0 00.0
Göttingen 18:00 16.2 08.2 59.0 15.7 09.0 21.0 200 1017.2 55 00.0 00.0
Greifswald 18:00 16.0 11.0 72.0 16.9 11.0 22.0 280 1016.8 23 00.0 00.0
Greifswalder Oie 18:00 15.8 12.8 82.0 15.8 26.0 41.0 310 1016.6 00.0 00.0
Großer Arber 18:00 06.2 05.6 96.0 19.0 26.0 230 13 00.0 00.0
Grünow 18:00 17.3 10.3 63.0 19.0 05.0 17.0 300 1017.0 00.0 00.0
Hahn 18:00 14.2 08.1 67.0 13.7 14.0 30.0 230 1017.8 00 00.0
Hamburg-Fuhlsbüttel 18:00 12.8 11.8 94.0 12.7 06.0 08.0 070 1016.0 17 00.0 00.0
Hannover 18:00 17.6 07.1 50.0 17.8 13.0 26.0 210 1016.2 60 00.0 00.0
Harburg 18:00 17.3 06.4 49.0 17.3 03.0 10.0 340 1018.4 00.0 00.0
Harzgerode 18:00 15.0 05.4 53.0 15.3 14.0 31.0 240 1017.3 60 00.0 00.0
Helgoland 18:00 14.6 11.2 80.0 14.9 10.0 14.0 150 1014.4 27 00.0 00.0
Hersfeld, Bad 18:00 16.7 06.1 50.0 15.6 10.0 24.0 220 1017.4 56 00.0 00.0
Hof 18:00 14.1 03.9 50.0 14.1 08.0 25.0 240 1018.5 47 00.0 00.0
Hohenpeißenberg 18:00 10.2 07.2 82.0 10.0 10.0 17.0 110 26 00.0 00.0
Hoherodskopf/Vogelsberg 18:00 12.8 05.5 61.0 13.5 14.0 25.0 190 1017.6 54 00.0 00.0
Hohn 18:00 15.8 08.1 60.0 11.0 220 1015.3
Holzdorf (Flugplatz) 18:00 15.7 12.2 80.0 07.0 170 1017.8 00.0
Hoyerswerda 18:00 15.5 12.7 83.0 15.3 04.0 07.0 240 1018.2 00.0 00.0
Idar-Oberstein 18:00 15.9 07.9 59.0 14.0 240 1017.8 00.0
Ingolstadt (Flugplatz) 18:00 16.9 06.4 50.0 07.0 240 1018.7
Itzehoe 18:00 16.1 09.2 64.0 18.7 02.0 12.0 190 1015.5 00.0
Kahler Asten 18:00 11.1 06.1 71.0 11.2 21.0 31.0 210 16 00.0 00.0
Kaisersbach-Cronhütte 18:00 16.7 05.7 48.0 17.5 05.0 18.0 220 1018.4 00.0 00.0
Kempten 18:00 15.2 06.1 55.0 13.7 07.0 15.0 180 1018.6 60 00.0 00.0
Kiel-Holtenau 18:00 15.9 10.6 71.0 15.7 09.0 19.0 210 1015.3 00.0 00.0
Kissingen, Bad 18:00 16.9 05.8 48.0 16.7 11.0 21.0 230 1018.2 51 00.0 00.0
Kleiner Feldberg/Taunus 18:00 11.5 06.1 69.0 11.1 12.0 28.0 210 28 00.0 00.0
Klippeneck 18:00 14.4 03.5 48.0 14.2 06.0 14.0 250 57 00.0 00.0
Köln-Bonn 18:00 15.2 12.7 85.0 14.8 02.0 13.0 100 1016.9 00 00.2
Konstanz 18:00 17.8 07.7 52.0 17.7 07.0 11.0 150 1018.3 60 00.0 00.0
Kümmersbruck 18:00 16.2 06.2 52.0 04.0 000 1018.5 00.0
Kyritz 18:00 16.7 10.2 65.0 15.8 06.0 20.0 290 1017.1 48 00.0 00.0
Laage (Flugplatz) 18:00 15.5 10.9 74.0 04.0 190 1016.6 00.0
Lahr 18:00 20.0 07.4 44.0 18.6 08.0 17.0 220 1018.0 48 00.0 00.0
Laupheim 18:00 17.3 05.4 45.0 07.0 000 1018.2 00.0
Lautertal-Oberlauter 18:00 16.3 05.1 47.0 16.6 12.0 23.0 250 1018.4 48 00.0 00.0
Lechfeld 18:00 15.2 09.6 69.0 14.0 130 1018.8 00.0
Leck 18:00 15.4 10.1 71.0 15.6 14.0 24.0 220 1014.7 52 00.0 00.0
Leinefelde 18:00 15.8 06.0 52.0 15.3 10.0 23.0 220 1017.3 59 00.0 00.0
Leipzig-Holzhausen 18:00 17.8 08.3 54.0 16.7 06.0 23.0 230 1017.6 00.0 00.0
Leipzig/Halle 18:00 17.7 08.3 54.0 17.0 11.0 18.0 250 1017.7 48 00.0
Leutkirch-Herlazhofen 18:00 16.4 06.1 51.0 16.1 05.0 11.0 290 1018.3 00.0 00.0
Lichtenhain-Mittelndorf 18:00 14.1 10.4 78.0 13.8 04.0 10.0 180 1018.5 52 00.0 00.0
Lindenberg 18:00 12.7 10.3 85.0 11.9 08.0 27.0 300 1018.3 00 04.8 00.0
Lippspringe, Bad 18:00 17.1 08.0 55.0 16.9 09.0 20.0 220 1016.1 13 00.0 00.0
List auf Sylt 18:00 15.3 09.8 70.0 16.6 19.0 32.0 210 1014.1 60 00.0 00.0
Lübeck-Blankensee 18:00 13.0 09.4 79.0 13.1 05.0 27.0 360 1016.3 04 00.0 00.0
Lüchow 18:00 17.9 10.4 62.0 18.3 04.0 08.0 210 1016.6 00.0 00.0
Lüdenscheid 18:00 13.3 10.1 81.0 12.8 1016.7 00 00.0 00.0
Lügde-Paenbruch 18:00 16.0 07.7 58.0 16.1 10.0 19.0 170 1016.3 44 00.0 00.0
Magdeburg 18:00 17.3 10.2 63.0 17.1 04.0 17.0 140 1017.3 15 00.0 00.0
Mannheim 18:00 18.6 07.4 48.0 17.7 10.0 21.0 170 1018.0 51 00.0 00.0
Manschnow 18:00 17.1 13.0 77.0 17.0 05.0 10.0 190 1017.5 00 00.0 00.0
Marienberg 18:00 13.7 09.0 73.0 15.3 05.0 22.0 320 1017.8 00.0 00.0
Marienberg, Bad 18:00 14.3 07.1 62.0 14.3 12.0 23.0 190 1016.9 00 00.0 00.0
Marnitz 18:00 16.4 10.4 68.0 17.0 04.0 14.0 160 1016.6 00.0 00.0
Meiningen 18:00 15.6 04.6 48.0 16.2 12.0 17.0 200 1017.9 49 00.0 00.0
Meßstetten 18:00 14.1 03.8 50.0 13.9 06.0 18.0 350 59 00.0 00.0
Michelstadt-Vielbrunn 18:00 16.3 05.6 49.0 15.4 11.0 23.0 220 1018.0 60 00.0 00.0
Mühlacker 18:00 19.2 08.0 48.0 19.8 07.0 16.0 290 1018.1 00.0 00.0
Mühldorf 18:00 14.8 09.7 72.0 14.2 07.0 18.0 210 1020.0 47 00.0
München-Flughafen 18:00 15.3 08.6 64.0 15.4 11.0 22.0 170 1019.4 12 00.0 00.0
München-Stadt 18:00 15.8 07.6 58.0 15.4 08.0 19.0 200 1019.2 55 00.0 00.0
Münster/Osnabrück 18:00 16.5 11.2 71.0 14.2 18.0 40.0 210 1015.8 00.1 00.0
Neu-Ulrichstein 18:00 14.8 07.9 63.0 14.6 10.0 22.0 180 1017.4 00.0 00.0
Neuburg/Donau (Flugplatz) 18:00 17.5 06.3 48.0 04.0 230 1018.6 00.0
Neuhaus am Rennweg 18:00 11.6 02.9 55.0 09.6 09.0 26.0 240 00.0 00.0
Neuhütten/Spessart 18:00 16.6 06.1 50.0 17.3 13.0 20.0 250 1018.0 60 00.0 00.0
Niederstetten 18:00 16.1 04.9 47.0 11.0 280 1018.2 00.0
Norderney 18:00 16.2 10.4 69.0 16.5 11.0 20.0 100 1013.6 50 00.0 00.0
Nordholz (Flugplatz) 18:00 15.5 09.4 67.0 07.0 130 1014.9 00.0
Nörvenich (Flugplatz) 18:00 15.2 11.1 77.0 14.0 190 1016.1 00.0
Nürburg-Barweiler 18:00 13.0 09.0 77.0 13.1 17.0 34.0 220 1017.2 00 00.0 00.0
Nürnberg 18:00 17.6 05.8 46.0 17.6 08.0 18.0 270 1018.6 26 00.0 00.0
Oberstdorf 18:00 12.6 08.3 75.0 12.5 10.0 13.0 150 28 00.0 00.0
Offenbach-Wetterpark 18:00 19.6 06.7 43.0 20.2 07.0 21.0 220 1017.6 00.0 00.0
Öhringen 18:00 18.3 06.1 45.0 18.1 08.0 16.0 290 1018.5 60 00.0 00.0
Oschatz 18:00 16.2 12.2 77.0 16.3 04.0 09.0 120 1018.1 21 00.0 00.0
Osterfeld 18:00 18.0 08.8 55.0 19.5 04.0 12.0 280 1017.6 00.0 00.0
Pelzerhaken 18:00 15.6 10.1 70.0 15.8 07.0 17.0 250 1016.3 00.0 00.0
Plauen 18:00 16.5 05.6 49.0 15.1 09.0 24.0 220 1018.0 00.0 00.0
Potsdam 18:00 16.9 11.5 70.0 15.3 03.0 12.0 230 1017.1 32 00.0 00.0
Putbus 18:00 15.1 11.5 79.0 15.7 12.0 24.0 280 1016.6 00.0 00.0
Quickborn 18:00 14.1 12.2 88.0 14.4 03.0 08.0 120 1016.0 00.0 00.0
Regensburg 18:00 17.4 09.4 59.0 16.9 03.0 12.0 290 1018.8 35 00.0 00.0
Rheinstetten 18:00 19.6 08.3 48.0 19.4 08.0 21.0 230 1018.1 60 00.0 00.0
Rostock-Warnemünde 18:00 14.5 11.6 83.0 14.2 06.0 14.0 290 1016.5 50 00.0 00.0
Roth 18:00 17.2 05.2 45.0 17.0 11.0 21.0 300 1018.7 00.0 00.0
Saarbrücken-Ensheim 18:00 17.0 08.4 57.0 17.5 13.0 22.0 250 1018.1 00 00.0
Salzuflen, Bad 18:00 16.9 07.6 54.0 16.6 06.0 21.0 220 1015.8 00.0
Sankt Peter-Ording 18:00 15.7 09.5 67.0 16.5 07.0 16.0 180 1014.8 12 00.0 00.0
Schauenburg-Elgershausen 18:00 15.9 06.7 54.0 15.4 09.0 23.0 220 1017.0 57 00.0 00.0
Schleiz 18:00 15.0 05.2 52.0 15.5 15.0 24.0 230 1018.1 00.0 00.0
Schleswig 18:00 15.8 07.9 59.0 14.0 09.0 22.0 240 1015.1 60 00.0 00.0
Schleswig-Jagel 18:00 16.2 07.9 58.0 14.0 230 1015.1
Schmücke 18:00 10.6 03.8 63.0 09.7 13.0 26.0 220 18 00.0 00.0
Schönhagen (Ostseebad) 18:00 16.2 09.5 65.0 15.7 10.0 17.0 240 1015.0 00.0 00.0
Schwerin 18:00 16.4 07.9 57.0 16.1 11.0 23.0 240 1016.4 00.0 00.0
Seehausen 18:00 15.9 09.8 67.0 17.1 05.0 08.0 130 1017.1 00.0 00.0
Soltau 18:00 17.7 07.2 50.0 18.7 08.0 19.0 220 1015.8 60 00.0 00.0
Stötten 18:00 14.5 05.7 56.0 15.6 05.0 19.0 330 1018.5 60 00.0 00.0
Straubing 18:00 15.5 11.1 75.0 14.5 07.0 15.0 180 1019.2 34 00.0 00.0
Stuttgart (Schnarrenberg) 18:00 18.5 05.3 42.0 19.8 06.0 20.0 340 1018.2 60 00.0 00.0
Stuttgart-Echterdingen 18:00 16.4 08.5 60.0 16.1 06.0 09.0 090 1018.1 00.0 00.0
Tholey 18:00 15.4 08.6 64.0 15.1 14.0 25.0 240 1018.2 00 00.0 00.0
Trier-Petrisberg 18:00 15.7 09.5 67.0 16.1 15.0 31.0 230 1017.9 00 00.1 00.0
Trollenhagen 18:00 16.2 09.8 66.0 16.7 09.0 19.0 300 1017.0 59 00.0
Ueckermünde 18:00 17.0 11.4 70.0 16.8 07.0 17.0 230 1016.9 04 00.0 00.0
UFS Deutsche Bucht 18:00 14.6 11.9 84.0 14.0 130 1014.1
UFS TW Ems 18:00 14.7 11.6 82.0 18.0 140 1013.1
Ulm-Mähringen 18:00 15.4 07.8 61.0 15.1 05.0 10.0 220 1018.6 14 00.0 00.0
Ummendorf 18:00 16.7 09.7 63.0 17.6 06.0 12.0 220 1016.9 00.0 00.0
Waibstadt 18:00 17.9 08.0 52.0 17.3 07.0 19.0 230 1018.2 00.0 00.0
Waldmünchen 18:00 14.6 06.9 60.0 13.4 14.0 21.0 250 1018.9 35 00.0 00.0
Warburg 18:00 16.7 07.3 54.0 16.0 11.0 21.0 220 1016.3 00.0 00.0
Waren (Müritz) 18:00 16.6 09.2 62.0 16.8 09.0 19.0 250 1016.8 39 00.0 00.0
Wasserkuppe 18:00 10.9 04.7 66.0 10.5 14.0 27.0 220 36 00.0 00.0
Weiden 18:00 14.4 07.1 62.0 11.6 05.0 16.0 260 1019.0 07 00.0 00.0
Weihenstephan-Dürnast 18:00 15.6 08.7 64.0 15.3 04.0 13.0 190 1019.3 11 00.0 00.0
Weinbiet 18:00 15.0 06.7 58.0 15.3 15.0 27.0 190 1018.0 11 00.0 00.0
Weißenburg-Emetzheim 18:00 16.4 07.5 56.0 17.0 08.0 16.0 320 1018.8 48 00.0 00.0
Werl 18:00 16.1 11.1 72.0 14.3 12.0 21.0 210 1016.3 00 00.1 00.0
Wernigerode 18:00 17.1 04.9 44.0 18.4 09.0 24.0 230 1016.9 00.0 00.0
Wiesenburg 18:00 13.9 08.9 72.0 14.0 15.0 37.0 280 1017.8 00.0 00.0
Wittenberg 18:00 17.4 10.7 65.0 17.7 05.0 17.0 290 1017.6 22 00.0 00.0
Wittmundhafen 18:00 17.0 10.2 64.0 11.0 140 1014.1 00.0
Wunsiedel-Schönbrunn 18:00 13.8 05.1 56.0 13.3 12.0 23.0 270 1018.7 00.0 00.0
Wunstorf 18:00 18.3 06.4 46.0 11.0 210 1015.8 00.0
Würzburg 18:00 17.5 05.7 46.0 17.0 14.0 27.0 220 1018.7 59 00.0 00.0
Zinnwald-Georgenfeld 18:00 11.8 08.1 78.0 10.8 09.0 20.0 280 56 00.0 00.0
Zugspitze 18:00 -02.9 -03.3 97.0 19.0 36.0 300 00